EOS-6 (OCEANSAT-3)

Last updated on Thu Jul 03 2025 00:02:41 GMT+0000 (Coordinated Universal Time)

1 54361U 22158A 25183.54476815 .00000225 00000+0 73744-4 0 9993 2 54361 98.3540 281.4363 0000917 36.2764 323.8491 14.47001672137274
UTC large
Height (km)
Speed (km/s)
/
Latitude / Longitude
Inclination (degrees)
Orbital Period (minutes)
Azimuth
Elevation
Range (km)
Doppler Factor

Next 0 passes for location: London (51.5072 / 0.1276)

Sorry there are no passes over London.